Weather in Krasnoarmeysky

Russia / Volgograd Oblast     51°02′45″N   42°54′29″E
temp.,
°C
wind,
m/s
gust,
m/s
humid.,
%
clouds,
%
prec.,
mm/h
press.,
hPa
HPBL,
m
25 june, sat
sat2500:00+15n349427 0.1 101157
03:00+14nne369174 0.1 1012124
06:00+16nne379198 0.0 1012226
09:00+18nne488247 0.0 1013423
12:00+24ne5754100 0.0 10131487
15:00+25ne6748100 0.0 10131875
18:00+24ene3663100 0.0 1013316
21:00+19nne478094 0.0 1015108
26 june, sun
sun2600:00+17ne4118626 0.0 1016186
03:00+16nne48882 0.0 1016148
06:00+18ne49820 0.0 1017242
09:00+23ne56620 0.0 1018720
12:00+26ne79480 0.0 10181992
15:00+25ne79450 0.0 10171783
18:00+23ne69580 0.0 1018715
21:00+18nne411780 0.0 1019207
27 june, mon
mon2700:00+15ne410780 0.0 1020175
03:00+13ene35810 0.0 102179
06:00+16ene34760 0.0 1022126
09:00+21ne34560 0.0 1022691
12:00+24ne44450 0.0 10211235
15:00+26ne23410 0.0 10191434
18:00+25n23530 0.0 1018544
21:00+20nw22680 0.0 101812
28 june, tue
tue2800:00+18wnw33710 0.0 101729
03:00+17wnw46774 0.1 1016112
06:00+19nw48880 0.8 1016209
09:00+24nne68670 0.8 1015703
12:00+26nne78540 0.0 10151624
15:00+25nne87538 0.0 10161857
18:00+23nne68570 0.0 1017848
21:00+17nne612630 0.0 1018345
29 june, wed
wed2900:00+13ne48770 0.0 1019150
03:00+12ene338669 0.0 102135
06:00+15ene237130 0.0 1021258
09:00+17ene335832 0.0 10211158
12:00+19ne444999 0.1 10211788
15:00+21nne554012 0.1 10212240
18:00+19nne565040 0.0 1021888
21:00+14nne47655 0.0 102297